Regional Weather Roundup
Issued by NWS Bismarck, ND

Home | Current Version | Previous Version | Text Only | Print | Product List | Glossary On
Versions: 1 2 3 4 5 6 7 8 9 10 11 12 13 14 15 16 17 18 19 20 21 22 23 24 25 26 27 28 29 30 31 32 33 34 35 36 37 38 39 40 41 42 43 44 45 46 47 48 49 50
000
ASUS43 KBIS 301210
RWRBIS

NWR BROADCAST TEXT
NATIONAL WEATHER SERVICE BISMARCK ND
700 AM CDT SUN AUG 30 2015

NOTE: "FAIR" INDICATES FEW OR NO CLOUDS BELOW 12,000 FEET WITH NO
SIGNIFICANT WEATHER AND/OR OBSTRUCTIONS TO VISIBILITY.


CITY           SKY/WX    TMP DP  RH WIND       PRES   REMARKS
WILLISTON      MOCLDY    64  54  69 CALM      29.67R
MINOT          MOCLDY    66  57  72 SE3       29.67F
MINOT AFB      MOCLDY    60  58  92 E1        29.67S
BISMARCK       MOCLDY    63  60  90 SE7       29.75S
DICKINSON      MOCLDY    63  49  60 S9        29.70F
GARRISON         N/A     62  58  86 SE7       29.71F
HETTINGER ARPT MOCLDY    62  48  60 E3        29.77S
JAMESTOWN      CLOUDY    64  63  96 S8        29.79S FOG
CROSBY         FAIR      63  55  77 SE9       29.66F
HARVEY         FAIR      64  63  94 S6        29.73S
HAZEN          FAIR      57  54  88 CALM      29.72S
LINTON         FAIR      63  63 100 SE13G18   29.78S
OAKES            N/A     63  63 100 S9        29.84S
RUGBY          FAIR      63  63 100 E8        29.72S
STANLEY        FAIR      66  57  72 SE6       29.70S
$$

CITY           SKY/WX    TMP DP  RH WIND       PRES   REMARKS
GRAND FORKS    PTCLDY    65  64  97 S10       29.77S
GRAND FORKS AF PTCLDY    64  64  99 S10       29.78R
DEVILS LAKE    PTCLDY    66  61  82 SE9       29.74R
FARGO          CLEAR     65  61  87 S13       29.83S
CAVALIER       FOG       66  66 100 S8        29.75S VSB<1/4
GRAFTON        CLOUDY    66  66 100 SE9       29.77S
GWINNER          N/A     66  66 100 S10       29.84S
LANGDON        FAIR      66  66 100 S7        29.77S
ROLLA          FAIR      63  63 100 S7        29.75S
WALHALLA       FAIR      66  66 100 MISG      29.75S FOG
$$

CITY           SKY/WX    TMP DP  RH WIND       PRES   REMARKS
ABERDEEN       CLEAR     64  62  93 S13       29.85S
MOBRIDGE       MOCLDY    66  63  90 SE12      29.77F
RAPID CITY     PTCLDY    62  46  55 SE7       29.84F
GLASGOW        MOCLDY    68  47  46 W9        29.68R HAZE
SIDNEY         CLOUDY    64  50  59 CALM      29.65F
WOLF POINT     MOCLDY    66  50  56 CALM      29.64S HAZE
GLENDIVE       MOCLDY    64  46  52 W5        29.68F
MILES CITY     CLOUDY    66  45  46 SW8       29.70R
BAKER          MOCLDY    66  46  48 SE9       29.72S
$$

CITY           SKY/WX    TMP DP  RH WIND       PRES   REMARKS
BILLINGS       CLOUDY    78  43  28 N5        29.79S
GREAT FALLS    LGT RAIN  59  52  77 CALM      29.82S
REGINA         CLOUDY    64  50  59 S6        29.62R SMOKE
ESTEVAN        CLOUDY    61  55  82 E6        29.66F SMOKE
$$



USA.gov is the U.S. government's official web portal to all federal, state and local government web resources and services.